When you browse on this site, cookies collect data to enhance your experience and personalize the content and advertising you see.
Visit our Privacy Policy to learn more. By continuing to use the site, you agree to this use of cookies and data.
  • In Österreich
  • Länderverzeichnis
  • Für 7 Tage
  • Wassertemperatur
  • Satellitenkarten
  • Wetterkarte
  • News
  • Widgets
  • user-avatar
    Anmelden

    Stündliche Wetter Rivne

    Heute, 19 Mai, Sonntag

    Zeit Temperatur Niederschläge Wind Luftdruck Luftfeuchtigkeit
    00:00 +20°C° 0.1 mm 6 m/S 751 mmHg 71%
    01:00 +20°C° 0.1 mm 6 m/S 751 mmHg 72%
    02:00 +19°C° 0 mm 5 m/S 751 mmHg 72%
    03:00 +17°C° 0 mm 5 m/S 751 mmHg 71%
    04:00 +17°C° 0 mm 5 m/S 751 mmHg 70%
    05:00 +17°C° 0 mm 5 m/S 751 mmHg 69%
    06:00 +19°C° 0 mm 5 m/S 752 mmHg 65%
    07:00 +21°C° 0 mm 6 m/S 752 mmHg 60%
    08:00 +23°C° 0 mm 7 m/S 752 mmHg 55%
    09:00 +24°C° 0 mm 7 m/S 752 mmHg 53%
    10:00 +27°C° 0 mm 7 m/S 752 mmHg 51%
    11:00 +28°C° 0 mm 8 m/S 752 mmHg 48%
    12:00 +28°C° 0 mm 7 m/S 753 mmHg 48%
    13:00 +28°C° 0 mm 7 m/S 753 mmHg 47%
    14:00 +28°C° 0 mm 7 m/S 753 mmHg 47%
    15:00 +28°C° 0 mm 7 m/S 753 mmHg 49%
    16:00 +27°C° 0 mm 6 m/S 753 mmHg 52%
    17:00 +27°C° 0 mm 6 m/S 753 mmHg 55%
    18:00 +25°C° 0 mm 5 m/S 753 mmHg 60%
    19:00 +23°C° 0 mm 5 m/S 753 mmHg 66%
    20:00 +21°C° 0 mm 4 m/S 753 mmHg 71%
    21:00 +21°C° 0 mm 4 m/S 754 mmHg 72%
    22:00 +20°C° 0 mm 4 m/S 754 mmHg 73%
    23:00 +20°C° 0 mm 5 m/S 754 mmHg 74%

    Morgen, 20 Mai, Montag

    Zeit Temperatur Niederschläge Wind Luftdruck Luftfeuchtigkeit
    00:00 +19°C° 0 mm 5 m/S 755 mmHg 76%
    01:00 +19°C° 0 mm 5 m/S 755 mmHg 79%
    02:00 +17°C° 0 mm 5 m/S 755 mmHg 82%
    03:00 +17°C° 0 mm 5 m/S 755 mmHg 81%
    04:00 +17°C° 0 mm 5 m/S 756 mmHg 81%
    05:00 +17°C° 0 mm 5 m/S 756 mmHg 81%
    06:00 +19°C° 0 mm 6 m/S 756 mmHg 72%
    07:00 +21°C° 0 mm 6 m/S 756 mmHg 63%
    08:00 +22°C° 0 mm 7 m/S 757 mmHg 55%
    09:00 +23°C° 0 mm 7 m/S 757 mmHg 53%
    10:00 +24°C° 0 mm 7 m/S 757 mmHg 52%
    11:00 +26°C° 0 mm 7 m/S 757 mmHg 50%
    12:00 +26°C° 0 mm 7 m/S 757 mmHg 49%
    13:00 +27°C° 0 mm 7 m/S 757 mmHg 48%
    14:00 +27°C° 0 mm 7 m/S 757 mmHg 47%
    15:00 +26°C° 0 mm 6 m/S 757 mmHg 48%
    16:00 +26°C° 0 mm 6 m/S 757 mmHg 49%
    17:00 +24°C° 0 mm 6 m/S 757 mmHg 51%
    18:00 +23°C° 0 mm 5 m/S 757 mmHg 54%
    19:00 +21°C° 0 mm 5 m/S 757 mmHg 58%
    20:00 +20°C° 0 mm 4 m/S 757 mmHg 62%
    21:00 +19°C° 0 mm 4 m/S 757 mmHg 61%
    22:00 +19°C° 0 mm 4 m/S 757 mmHg 60%
    23:00 +19°C° 0 mm 4 m/S 758 mmHg 59%

    übermorgen, 21 Mai, Dienstag

    Zeit Temperatur Niederschläge Wind Luftdruck Luftfeuchtigkeit
    00:00 +17°C° 0 mm 5 m/S 758 mmHg 62%
    01:00 +17°C° 0 mm 5 m/S 758 mmHg 66%
    02:00 +17°C° 0 mm 5 m/S 758 mmHg 70%
    03:00 +16°C° 0 mm 5 m/S 758 mmHg 69%
    04:00 +16°C° 0 mm 6 m/S 758 mmHg 68%
    05:00 +16°C° 0 mm 6 m/S 758 mmHg 66%
    06:00 +17°C° 0 mm 6 m/S 758 mmHg 62%
    07:00 +20°C° 0 mm 7 m/S 758 mmHg 58%
    08:00 +21°C° 0 mm 8 m/S 758 mmHg 54%
    09:00 +22°C° 0 mm 8 m/S 758 mmHg 52%
    10:00 +23°C° 0 mm 8 m/S 758 mmHg 50%
    11:00 +24°C° 0 mm 8 m/S 758 mmHg 49%
    12:00 +24°C° 0 mm 8 m/S 758 mmHg 49%
    13:00 +24°C° 0 mm 8 m/S 757 mmHg 50%
    14:00 +24°C° 0 mm 8 m/S 757 mmHg 50%
    15:00 +24°C° 0 mm 8 m/S 757 mmHg 53%
    16:00 +23°C° 0 mm 7 m/S 757 mmHg 57%
    17:00 +23°C° 0 mm 6 m/S 756 mmHg 60%
    18:00 +21°C° 0.1 mm 5 m/S 756 mmHg 64%
    19:00 +20°C° 0.1 mm 4 m/S 756 mmHg 69%
    20:00 +19°C° 0.1 mm 3 m/S 756 mmHg 73%
    21:00 +19°C° 0.1 mm 3 m/S 756 mmHg 76%
    22:00 +18°C° 0.1 mm 3 m/S 756 mmHg 79%
    23:00 +18°C° 0.1 mm 3 m/S 756 mmHg 82%

    22 Mai, Mittwoch

    Zeit Temperatur Niederschläge Wind Luftdruck Luftfeuchtigkeit
    00:00 +18°C° 0.3 mm 3 m/S 755 mmHg 86%
    01:00 +17°C° 0.3 mm 3 m/S 755 mmHg 89%
    02:00 +17°C° 0.3 mm 3 m/S 755 mmHg 93%
    03:00 +17°C° 0.4 mm 3 m/S 755 mmHg 93%
    04:00 +17°C° 0.4 mm 3 m/S 755 mmHg 93%
    05:00 +17°C° 0.4 mm 3 m/S 755 mmHg 94%
    06:00 +18°C° 0.2 mm 3 m/S 755 mmHg 90%
    07:00 +18°C° 0.2 mm 4 m/S 755 mmHg 86%
    08:00 +19°C° 0.2 mm 4 m/S 755 mmHg 82%
    09:00 +20°C° 1.2 mm 4 m/S 754 mmHg 78%
    10:00 +21°C° 1.2 mm 5 m/S 754 mmHg 73%
    11:00 +23°C° 1.2 mm 6 m/S 754 mmHg 68%
    12:00 +23°C° 0.3 mm 6 m/S 754 mmHg 65%
    13:00 +23°C° 0.3 mm 6 m/S 753 mmHg 63%
    14:00 +24°C° 0.3 mm 6 m/S 753 mmHg 60%
    15:00 +23°C° 0 mm 5 m/S 753 mmHg 63%
    16:00 +23°C° 0 mm 5 m/S 753 mmHg 65%
    17:00 +22°C° 0 mm 5 m/S 753 mmHg 68%
    18:00 +20°C° 0.3 mm 4 m/S 753 mmHg 76%
    19:00 +19°C° 0.3 mm 3 m/S 753 mmHg 84%
    20:00 +17°C° 0.3 mm 3 m/S 753 mmHg 91%
    21:00 +16°C° 0.2 mm 3 m/S 753 mmHg 89%
    22:00 +16°C° 0.2 mm 3 m/S 753 mmHg 86%
    23:00 +14°C° 0.2 mm 3 m/S 753 mmHg 83%

    23 Mai, Donnerstag

    Zeit Temperatur Niederschläge Wind Luftdruck Luftfeuchtigkeit
    00:00 +14°C° 0 mm 3 m/S 752 mmHg 85%
    01:00 +13°C° 0 mm 3 m/S 752 mmHg 87%
    02:00 +13°C° 0 mm 3 m/S 752 mmHg 89%
    03:00 +13°C° 0 mm 3 m/S 752 mmHg 88%
    04:00 +14°C° 0 mm 3 m/S 752 mmHg 88%
    05:00 +14°C° 0 mm 3 m/S 752 mmHg 87%
    06:00 +17°C° 0 mm 3 m/S 753 mmHg 79%
    07:00 +19°C° 0 mm 4 m/S 753 mmHg 71%
    08:00 +21°C° 0 mm 5 m/S 753 mmHg 63%
    09:00 +23°C° 0 mm 5 m/S 753 mmHg 57%
    10:00 +24°C° 0 mm 6 m/S 753 mmHg 50%
    11:00 +27°C° 0 mm 7 m/S 753 mmHg 44%
    12:00 +26°C° 0 mm 6 m/S 752 mmHg 46%
    13:00 +26°C° 0 mm 6 m/S 752 mmHg 47%
    14:00 +26°C° 0 mm 5 m/S 752 mmHg 49%
    15:00 +26°C° 0 mm 5 m/S 752 mmHg 50%
    16:00 +26°C° 0 mm 5 m/S 752 mmHg 51%
    17:00 +26°C° 0 mm 5 m/S 752 mmHg 53%
    18:00 +23°C° 0 mm 5 m/S 752 mmHg 57%
    19:00 +21°C° 0 mm 5 m/S 752 mmHg 61%
    20:00 +20°C° 0 mm 5 m/S 752 mmHg 66%
    21:00 +19°C° 0 mm 5 m/S 752 mmHg 70%
    22:00 +17°C° 0 mm 4 m/S 752 mmHg 74%
    23:00 +15°C° 0 mm 4 m/S 752 mmHg 79%

    24 Mai, Freitag

    Zeit Temperatur Niederschläge Wind Luftdruck Luftfeuchtigkeit
    00:00 +16°C° 0 mm 3 m/S 752 mmHg 83%
    01:00 +14°C° 0 mm 3 m/S 752 mmHg 88%
    02:00 +14°C° 0 mm 3 m/S 752 mmHg 92%
    03:00 +14°C° 0 mm 3 m/S 752 mmHg 92%
    04:00 +15°C° 0 mm 2 m/S 752 mmHg 91%
    05:00 +15°C° 0 mm 2 m/S 752 mmHg 91%
    06:00 +18°C° 0 mm 3 m/S 752 mmHg 82%
    07:00 +20°C° 0 mm 3 m/S 753 mmHg 74%
    08:00 +22°C° 0 mm 3 m/S 753 mmHg 65%
    09:00 +24°C° 0.1 mm 3 m/S 753 mmHg 60%
    10:00 +26°C° 0.1 mm 3 m/S 753 mmHg 54%
    11:00 +27°C° 0.1 mm 4 m/S 752 mmHg 49%
    12:00 +27°C° 0 mm 4 m/S 752 mmHg 49%
    13:00 +27°C° 0 mm 4 m/S 752 mmHg 49%
    14:00 +27°C° 0 mm 5 m/S 751 mmHg 50%
    15:00 +26°C° 0 mm 5 m/S 751 mmHg 53%
    16:00 +25°C° 0 mm 5 m/S 751 mmHg 56%
    17:00 +23°C° 0 mm 5 m/S 750 mmHg 59%
    18:00 +21°C° 0 mm 4 m/S 750 mmHg 65%
    19:00 +20°C° 0 mm 4 m/S 750 mmHg 70%
    20:00 +18°C° 0 mm 3 m/S 750 mmHg 75%
    21:00 +18°C° 0 mm 3 m/S 750 mmHg 75%
    22:00 +18°C° 0 mm 3 m/S 750 mmHg 74%
    23:00 +18°C° 0 mm 3 m/S 749 mmHg 73%
    Mehr zeigen